GW6153 Weather Reports


time (UTC)temp
C
wind
direction
speed
KPH
gust
KPH
rain 1hr
cm
rain 24hr
cm
rain mn
cm
humidity
%
barometer
mb
20260906220101 37 91 3.2 3.2 0.00 0.00 0.00 36 1010.8
20260906203622 38 85 1.6 1.6 0.00 0.00 0.00 37 1011.9
20260906195515 40 190 1.6 1.6 0.00 0.00 0.00 35 1012.2
20260906182624 37 189 1.6 1.6 0.00 0.00 0.00 40 1013.2
20260906175144 37 80 1.6 1.6 0.00 0.00 0.00 42 1013.5
20260906172711 37 95 1.6 1.6 0.00 0.00 0.00 43 1013.9
20260906171711 36 119 1.6 1.6 0.00 0.00 0.00 46 1014.2
20260906170712 36 140 1.6 1.6 0.00 0.00 0.00 44 1014.2
20260906170344 36 96 1.6 1.6 0.00 0.00 0.00 45 1014.2
20260906165539 36 51 1.6 1.6 0.00 0.00 0.00 45 1014.2
20260906163149 35 134 1.6 1.6 0.00 0.00 0.00 49 1014.6
20260906162225 36 130 1.6 1.6 0.00 0.00 0.00 48 1014.6
20260906162149 36 130 1.6 1.6 0.00 0.00 0.00 48 1014.6
20260906161149 35 239 1.6 1.6 0.00 0.00 0.00 50 1014.6
20260906154650 35 213 0.0 0.0 0.00 0.00 0.00 53 1014.6
20260906141038 31 196 0.0 0.0 0.00 0.00 0.00 64 1014.2
20260906132653 27 92 0.0 0.0 0.00 0.00 0.00 75 1014.2
20260906131654 26 141 0.0 0.0 0.00 0.00 0.00 79 1014.2
20260906125654 25 0 0.0 0.0 0.00 0.00 0.00 84 1013.9
20260906125154 25 37 0.0 0.0 0.00 0.00 0.00 85 1013.9
20260906124154 25 314 0.0 0.0 0.00 0.00 0.00 86 1013.9
20260906121125 25 0 0.0 0.0 0.00 0.00 0.00 86 1013.5
20260906105336 25 0 1.6 1.6 0.00 0.00 0.00 83 1012.9
20260906082005 27 0 1.6 1.6 0.00 0.00 0.00 76 1012.2
20260906080338 27 0 1.6 1.6 0.00 0.00 0.00 76 1012.2
20260906000807 36 23 1.6 1.6 0.00 0.00 0.00 38 1010.5
20260906000457 36 56 1.6 1.6 0.00 0.00 0.00 38 1010.5
20260905235808 36 175 1.6 1.6 0.00 0.00 0.00 38 1010.5
20260905234807 36 220 1.6 1.6 0.00 0.00 0.00 38 1010.5
20260905233808 36 138 1.6 1.6 0.00 0.00 0.00 37 1010.5
20260905233257 36 133 1.6 1.6 0.00 0.00 0.00 37 1010.5
20260905232257 36 169 1.6 1.6 0.00 0.00 0.00 37 1010.5
20260905232201 36 169 1.6 1.6 0.00 0.00 0.00 37 1010.5
20260905231203 36 322 1.6 1.6 0.00 0.00 0.00 37 1010.5